N0GO-2 Weather Reports


time (UTC)temp
C
wind
direction
speed
KPH
gust
KPH
rain 1hr
cm
rain 24hr
cm
rain mn
cm
humidity
%
barometer
mb
20260505071002 13 340 9.7 22.5 0.00 0.03 0.03 55 1020.7
20260505070903 13 335 6.4 22.5 0.00 0.03 0.03 55 1020.7
20260505070603 13 320 14.5 22.5 0.00 0.03 0.03 55 1020.7
20260505070503 13 323 3.2 6.4 0.00 0.03 0.03 53 1020.8
20260505070402 13 332 3.2 6.4 0.00 0.03 0.03 53 1020.7
20260505070302 13 343 3.2 6.4 0.00 0.03 0.03 53 1020.7
20260505070203 13 348 3.2 11.3 0.00 0.03 0.03 53 1020.7
20260505070105 13 347 3.2 11.3 0.00 0.03 0.03 53 1020.4
20260505070002 13 351 3.2 11.3 0.00 0.03 0.03 53 1020.5
20260505065903 13 355 3.2 11.3 0.00 0.03 0.03 53 1020.3
20260505065803 13 358 6.4 11.3 0.00 0.03 0.03 52 1020.0
20260505065703 14 358 4.8 11.3 0.00 0.03 0.03 53 1020.0
20260505065603 14 1 6.4 11.3 0.00 0.03 0.03 52 1020.1
20260505065503 14 7 4.8 11.3 0.00 0.03 0.03 52 1020.0
20260505065402 14 8 4.8 11.3 0.00 0.03 0.03 51 1020.0
20260505065303 14 7 6.4 11.3 0.00 0.03 0.03 50 1020.1
20260505064903 14 16 6.4 16.1 0.00 0.03 0.03 50 1020.1
20260505064803 14 14 9.7 16.1 0.00 0.03 0.03 50 1020.1
20260505064703 14 13 6.4 16.1 0.00 0.03 0.03 50 1020.0
20260505064604 14 11 6.4 16.1 0.00 0.03 0.03 51 1019.9
20260505064502 14 358 6.4 16.1 0.00 0.03 0.03 51 1019.9
20260505064402 14 347 4.8 16.1 0.00 0.03 0.03 51 1020.0
20260505064303 14 341 4.8 16.1 0.00 0.03 0.03 51 1020.0
20260505064205 14 340 6.4 16.1 0.00 0.03 0.03 51 1020.1
20260505064003 14 333 12.9 16.1 0.00 0.03 0.03 53 1020.3
20260505063903 14 334 8.0 19.3 0.00 0.03 0.03 54 1020.3
20260505063703 15 337 4.8 19.3 0.00 0.03 0.03 53 1019.8
20260505063603 15 339 6.4 19.3 0.00 0.03 0.03 53 1019.6
20260505063503 15 344 8.0 19.3 0.00 0.03 0.03 53 1019.4
20260505063403 15 349 6.4 19.3 0.00 0.03 0.03 54 1019.2
20260505063103 15 350 12.9 19.3 0.00 0.03 0.03 56 1019.2
20260505063003 15 354 11.3 19.3 0.00 0.03 0.03 56 1019.2
20260505062902 15 349 14.5 19.3 0.00 0.03 0.03 57 1019.1
20260505062803 15 349 8.0 12.9 0.00 0.03 0.03 57 1019.2
20260505062704 15 353 8.0 11.3 0.00 0.03 0.03 57 1019.1
20260505062603 15 353 6.4 11.3 0.00 0.03 0.03 57 1019.2
20260505062403 15 352 8.0 11.3 0.00 0.03 0.03 57 1019.2
20260505062304 15 355 4.8 11.3 0.00 0.03 0.03 57 1019.1
20260505062202 15 355 4.8 11.3 0.00 0.03 0.03 57 1019.3
20260505062103 15 356 6.4 11.3 0.00 0.03 0.03 57 1019.2
20260505062003 15 359 6.4 11.3 0.00 0.03 0.03 58 1019.4
20260505061803 15 353 8.0 14.5 0.00 0.03 0.03 59 1019.6
20260505061702 15 350 8.0 14.5 0.00 0.03 0.03 60 1019.5
20260505061502 15 346 6.4 14.5 0.00 0.03 0.03 60 1019.2
20260505061402 15 346 4.8 14.5 0.03 0.03 0.03 61 1019.1
20260505061303 15 344 6.4 14.5 0.03 0.03 0.03 61 1019.1
20260505061203 15 343 6.4 14.5 0.03 0.03 0.03 62 1019.2
20260505061103 15 343 6.4 14.5 0.03 0.03 0.03 62 1019.1
20260505061002 15 341 9.7 14.5 0.03 0.03 0.03 64 1018.9
20260505060902 15 348 9.7 14.5 0.03 0.03 0.03 65 1018.8
20260505060802 15 353 6.4 11.3 0.03 0.03 0.03 66 1018.8
20260505060703 15 352 6.4 8.0 0.03 0.03 0.03 66 1018.8
20260505060603 15 355 4.8 9.7 0.03 0.03 0.03 67 1018.7
20260505060503 15 353 4.8 9.7 0.03 0.03 0.03 67 1018.6
20260505060403 15 353 4.8 9.7 0.03 0.03 0.03 67 1018.6
20260505060303 15 353 4.8 9.7 0.03 0.03 0.03 67 1018.4
20260505060202 15 353 4.8 9.7 0.03 0.03 0.03 67 1018.4
20260505055903 15 354 6.4 9.7 0.03 0.03 0.03 67 1018.4
20260505055803 15 355 3.2 9.7 0.03 0.03 0.03 67 1018.2
20260505055703 15 358 6.4 9.7 0.03 0.03 0.03 67 1018.3
20260505055606 15 359 6.4 9.7 0.03 0.03 0.03 67 1018.3
20260505055503 15 357 6.4 9.7 0.03 0.03 0.03 67 1018.3
20260505055403 15 357 6.4 9.7 0.03 0.03 0.03 67 1018.1
20260505055202 15 357 6.4 9.7 0.03 0.03 0.03 66 1018.0
20260505055002 15 357 4.8 11.3 0.03 0.03 0.03 66 1017.9
20260505054803 15 2 6.4 11.3 0.03 0.03 0.03 66 1017.9
20260505054703 15 2 6.4 11.3 0.03 0.03 0.03 68 1017.9
20260505054603 15 2 8.0 11.3 0.03 0.03 0.03 68 1018.1
20260505054503 15 6 4.8 11.3 0.03 0.03 0.03 69 1017.9
20260505054402 15 6 6.4 11.3 0.03 0.03 0.03 69 1017.8
20260505054203 15 6 8.0 11.3 0.03 0.03 0.03 70 1017.7
20260505054106 15 6 8.0 11.3 0.03 0.03 0.03 70 1017.7
20260505054003 14 8 6.4 9.7 0.03 0.03 0.03 70 1017.7
20260505053903 14 5 6.4 9.7 0.03 0.03 0.03 70 1017.8
20260505053803 14 3 4.8 9.7 0.03 0.03 0.03 71 1018.0
20260505053703 14 4 6.4 9.7 0.03 0.03 0.03 70 1017.9
20260505053602 14 4 4.8 8.0 0.03 0.03 0.03 70 1017.9
20260505053502 15 5 6.4 12.9 0.03 0.03 0.03 70 1018.0
20260505053403 15 12 6.4 12.9 0.03 0.03 0.03 70 1017.9
20260505053303 15 14 6.4 12.9 0.03 0.03 0.03 70 1018.0
20260505053103 15 15 4.8 12.9 0.03 0.03 0.03 69 1018.0
20260505053002 15 12 4.8 12.9 0.03 0.03 0.03 68 1017.9
20260505052902 15 13 4.8 12.9 0.03 0.03 0.03 67 1018.0
20260505052802 15 12 4.8 12.9 0.03 0.03 0.03 67 1018.0
20260505052703 15 11 6.4 17.7 0.03 0.03 0.03 66 1017.9
20260505052605 15 10 6.4 17.7 0.03 0.03 0.03 65 1018.0
20260505052502 15 13 8.0 20.9 0.03 0.03 0.03 64 1018.1
20260505052402 15 10 8.0 20.9 0.03 0.03 0.03 64 1018.1
20260505052304 15 9 8.0 20.9 0.03 0.03 0.03 64 1018.0
20260505051903 16 7 6.4 20.9 0.03 0.03 0.03 61 1017.8
20260505051802 17 6 6.4 20.9 0.03 0.03 0.03 60 1017.8
20260505051603 17 6 12.9 20.9 0.03 0.03 0.03 52 1017.7
20260505051503 17 6 17.7 25.7 0.03 0.03 0.03 50 1017.3
20260505051403 18 5 6.4 25.7 0.00 0.00 0.00 47 1017.6
20260505051202 18 5 9.7 25.7 0.00 0.00 0.00 45 1017.6
20260505051003 18 5 12.9 27.4 0.00 0.00 0.00 43 1017.4
20260505050903 19 4 12.9 27.4 0.00 0.00 0.00 42 1017.6
20260505050802 19 3 12.9 27.4 0.00 0.00 0.00 42 1017.4
20260505050702 19 3 12.9 30.6 0.00 0.00 0.00 41 1017.6
20260505050602 20 2 12.9 30.6 0.00 0.00 0.00 40 1017.3
20260505050503 20 357 17.7 30.6 0.00 0.00 0.00 39 1017.2
20260505050403 20 357 16.1 30.6 0.00 0.00 0.00 38 1017.4
20260505050303 20 355 17.7 30.6 0.00 0.00 0.00 37 1017.4
20260505041703 21 153 3.2 16.1 0.00 0.00 0.00 66 1016.2
20260505041602 21 149 4.8 16.1 0.00 0.00 0.00 66 1016.2
20260505041502 21 144 3.2 16.1 0.00 0.00 0.00 66 1016.1
20260505041403 21 137 6.4 16.1 0.00 0.00 0.00 66 1016.2
20260505041303 21 132 6.4 16.1 0.00 0.00 0.00 66 1016.2
20260505041203 21 121 4.8 16.1 0.00 0.00 0.00 66 1016.3
20260505041103 21 114 3.2 16.1 0.00 0.00 0.00 66 1016.3
20260505041003 21 110 9.7 16.1 0.00 0.00 0.00 66 1016.3
20260505040902 21 102 9.7 16.1 0.00 0.00 0.00 66 1016.2
20260505040803 21 94 4.8 11.3 0.00 0.00 0.00 66 1016.3
20260505040703 21 101 4.8 11.3 0.00 0.00 0.00 66 1016.3
20260505040603 21 113 4.8 11.3 0.00 0.00 0.00 66 1016.4
20260505040503 21 127 4.8 11.3 0.00 0.00 0.00 66 1016.4
20260505040402 21 137 4.8 12.9 0.00 0.00 0.00 66 1016.4
20260505040103 21 162 4.8 12.9 0.00 0.00 0.00 66 1016.5
20260505035903 21 162 8.0 12.9 0.00 0.00 0.00 66 1016.3
20260505035802 21 157 3.2 12.9 0.00 0.00 0.00 66 1016.4
20260505035702 21 154 3.2 12.9 0.00 0.00 0.00 66 1016.5
20260505035603 21 155 6.4 12.9 0.00 0.00 0.00 65 1016.4
20260505035403 21 163 3.2 11.3 0.00 0.00 0.00 65 1016.4
20260505035304 21 165 3.2 11.3 0.00 0.00 0.00 65 1016.4
20260505035203 21 169 3.2 11.3 0.00 0.00 0.00 65 1016.5
20260505035103 21 170 6.4 11.3 0.00 0.00 0.00 65 1016.4
20260505035002 21 173 4.8 11.3 0.00 0.00 0.00 65 1016.4
20260505034903 21 178 6.4 11.3 0.00 0.00 0.00 65 1016.3
20260505034803 21 196 3.2 11.3 0.00 0.00 0.00 65 1016.4
20260505034703 21 195 3.2 9.7 0.00 0.00 0.00 65 1016.5
20260505034603 21 186 4.8 9.7 0.00 0.00 0.00 65 1016.4
20260505034503 21 176 6.4 9.7 0.00 0.00 0.00 65 1016.4
20260505034402 21 164 6.4 8.0 0.00 0.00 0.00 65 1016.5
20260505034103 21 150 4.8 8.0 0.00 0.00 0.00 64 1016.5
20260505034005 21 143 4.8 8.0 0.00 0.00 0.00 64 1016.4
20260505033902 21 138 6.4 12.9 0.00 0.00 0.00 64 1016.4
20260505033802 21 136 3.2 12.9 0.00 0.00 0.00 64 1016.4
20260505033703 21 144 3.2 12.9 0.00 0.00 0.00 64 1016.5
20260505033603 21 152 3.2 12.9 0.00 0.00 0.00 64 1016.5
20260505033503 21 153 3.2 12.9 0.00 0.00 0.00 64 1016.5
20260505033403 21 153 4.8 12.9 0.00 0.00 0.00 64 1016.5
20260505033303 21 153 6.4 12.9 0.00 0.00 0.00 64 1016.5
20260505033202 21 152 4.8 12.9 0.00 0.00 0.00 63 1016.6
20260505033103 21 155 3.2 12.9 0.00 0.00 0.00 63 1016.5
20260505033003 21 162 9.7 12.9 0.00 0.00 0.00 63 1016.4
20260505032903 21 164 4.8 8.0 0.00 0.00 0.00 63 1016.5
20260505032803 21 154 3.2 6.4 0.00 0.00 0.00 63 1016.5
20260505032702 21 150 3.2 6.4 0.00 0.00 0.00 63 1016.5
20260505032602 21 148 3.2 4.8 0.00 0.00 0.00 62 1016.5
20260505032505 21 150 3.2 4.8 0.00 0.00 0.00 62 1016.5
20260505032402 21 151 3.2 4.8 0.00 0.00 0.00 62 1016.5
20260505032103 22 149 3.2 4.8 0.00 0.00 0.00 62 1016.4
20260505032003 22 145 3.2 4.8 0.00 0.00 0.00 62 1016.4
20260505031702 22 150 3.2 4.8 0.00 0.00 0.00 62 1016.4
20260505031603 22 151 3.2 4.8 0.00 0.00 0.00 61 1016.3
20260505031503 22 154 3.2 4.8 0.00 0.00 0.00 61 1016.3
20260505031403 22 158 3.2 4.8 0.00 0.00 0.00 61 1016.2
20260505031103 22 168 3.2 4.8 0.00 0.00 0.00 61 1016.3
20260505031006 22 172 3.2 4.8 0.00 0.00 0.00 61 1016.2
20260505030902 22 177 3.2 4.8 0.00 0.00 0.00 61 1016.3
20260505030802 22 181 3.2 4.8 0.00 0.00 0.00 61 1016.3
20260505030702 22 181 3.2 4.8 0.00 0.00 0.00 61 1016.3
20260505030603 22 178 3.2 4.8 0.00 0.00 0.00 60 1016.2
20260505030503 22 178 3.2 4.8 0.00 0.00 0.00 60 1016.1
20260505030403 22 181 3.2 4.8 0.00 0.00 0.00 60 1016.3
20260505030303 22 181 3.2 4.8 0.00 0.00 0.00 60 1016.0
20260505030203 22 181 3.2 4.8 0.00 0.00 0.00 60 1016.1
20260505030103 22 181 3.2 4.8 0.00 0.00 0.00 60 1016.2
20260505030003 22 181 3.2 4.8 0.00 0.00 0.00 60 1016.2
20260505025803 22 182 3.2 3.2 0.00 0.00 0.00 60 1016.2
20260505025703 22 182 3.2 3.2 0.00 0.00 0.00 60 1016.2
20260505025602 22 183 3.2 3.2 0.00 0.00 0.00 60 1016.1
20260505025505 22 187 3.2 3.2 0.00 0.00 0.00 59 1016.2
20260505025402 22 185 1.6 3.2 0.00 0.00 0.00 59 1016.2
20260505025304 22 183 1.6 3.2 0.00 0.00 0.00 59 1016.2
20260505025203 22 177 1.6 3.2 0.00 0.00 0.00 59 1016.1
20260505025103 22 177 3.2 4.8 0.00 0.00 0.00 59 1016.1
20260505024903 22 169 3.2 4.8 0.00 0.00 0.00 58 1016.2
20260505024802 22 168 1.6 4.8 0.00 0.00 0.00 58 1016.1
20260505024702 22 168 1.6 4.8 0.00 0.00 0.00 58 1016.1
20260505024603 22 167 3.2 4.8 0.00 0.00 0.00 57 1016.0
20260505024303 22 169 3.2 4.8 0.00 0.00 0.00 53 1016.0
20260505024203 22 173 3.2 4.8 0.00 0.00 0.00 53 1015.9
20260505024102 22 174 3.2 6.4 0.00 0.00 0.00 53 1015.9
20260505024002 22 170 3.2 6.4 0.00 0.00 0.00 53 1016.0
20260505023903 22 172 3.2 6.4 0.00 0.00 0.00 53 1016.0
20260505023803 22 170 1.6 6.4 0.00 0.00 0.00 53 1015.9
20260505023703 22 169 3.2 6.4 0.00 0.00 0.00 53 1015.9
20260505023603 22 170 3.2 6.4 0.00 0.00 0.00 52 1015.8
20260505023503 22 171 3.2 6.4 0.00 0.00 0.00 52 1015.8
20260505023402 22 171 3.2 6.4 0.00 0.00 0.00 52 1015.9
20260505023302 22 165 1.6 6.4 0.00 0.00 0.00 52 1015.8
20260505023203 22 164 3.2 6.4 0.00 0.00 0.00 52 1015.8
20260505023103 22 161 3.2 6.4 0.00 0.00 0.00 52 1015.8
20260505023003 22 168 3.2 3.2 0.00 0.00 0.00 51 1015.9
20260505022902 22 173 3.2 3.2 0.00 0.00 0.00 51 1015.8
20260505022802 22 178 3.2 3.2 0.00 0.00 0.00 51 1015.8
20260505022705 22 181 1.6 3.2 0.00 0.00 0.00 51 1015.7
20260505022602 22 181 1.6 3.2 0.00 0.00 0.00 51 1015.6
20260505022505 22 181 1.6 3.2 0.00 0.00 0.00 50 1015.6
20260505022402 22 181 1.6 3.2 0.00 0.00 0.00 50 1015.7
20260505022203 22 181 1.6 3.2 0.00 0.00 0.00 50 1015.6
20260505022103 22 181 1.6 3.2 0.00 0.00 0.00 50 1015.5
20260505022003 22 181 0.0 3.2 0.00 0.00 0.00 50 1015.5
20260505021902 22 181 0.0 3.2 0.00 0.00 0.00 50 1015.6
20260505021702 22 181 1.6 3.2 0.00 0.00 0.00 50 1015.5
20260505021603 22 181 1.6 3.2 0.00 0.00 0.00 50 1015.6
20260505021403 22 181 1.6 3.2 0.00 0.00 0.00 50 1015.5
20260505021303 22 181 1.6 3.2 0.00 0.00 0.00 50 1015.5
20260505021203 22 181 1.6 3.2 0.00 0.00 0.00 50 1015.4
20260505021102 22 181 1.6 3.2 0.00 0.00 0.00 50 1015.4
20260505020906 22 181 1.6 3.2 0.00 0.00 0.00 50 1015.5
20260505020803 22 181 1.6 3.2 0.00 0.00 0.00 50 1015.6
20260505020703 22 181 1.6 3.2 0.00 0.00 0.00 50 1015.6
20260505020603 22 181 1.6 3.2 0.00 0.00 0.00 50 1015.5
20260505020502 22 181 0.0 3.2 0.00 0.00 0.00 50 1015.5
20260505020402 22 181 1.6 3.2 0.00 0.00 0.00 50 1015.4
20260505020303 22 181 1.6 3.2 0.00 0.00 0.00 50 1015.4
20260505020203 22 181 1.6 3.2 0.00 0.00 0.00 49 1015.5
20260505020003 22 181 1.6 3.2 0.00 0.00 0.00 49 1015.3
20260505015902 22 181 1.6 3.2 0.00 0.00 0.00 49 1015.4
20260505015803 22 181 1.6 3.2 0.00 0.00 0.00 49 1015.3
20260505015703 22 181 1.6 3.2 0.00 0.00 0.00 49 1015.4
20260505015603 22 181 1.6 3.2 0.00 0.00 0.00 49 1015.4
20260505015503 22 181 0.0 3.2 0.00 0.00 0.00 49 1015.3
20260505015406 22 181 1.6 3.2 0.00 0.00 0.00 49 1015.3
20260505015303 22 181 1.6 3.2 0.00 0.00 0.00 49 1015.4
20260505015203 22 181 0.0 3.2 0.00 0.00 0.00 49 1015.3
20260505015103 22 181 1.6 3.2 0.00 0.00 0.00 49 1015.3
20260505015002 22 181 3.2 3.2 0.00 0.00 0.00 48 1015.3
20260505014803 22 181 1.6 3.2 0.00 0.00 0.00 48 1015.3
20260505014703 22 181 0.0 3.2 0.00 0.00 0.00 48 1015.2
20260505014603 22 181 0.0 3.2 0.00 0.00 0.00 48 1015.3
20260505014502 22 181 0.0 3.2 0.00 0.00 0.00 48 1015.2
20260505014302 22 181 0.0 3.2 0.00 0.00 0.00 48 1015.1
20260505014203 22 181 0.0 3.2 0.00 0.00 0.00 47 1015.1
20260505014003 23 181 1.6 3.2 0.00 0.00 0.00 47 1015.1
20260505013906 23 0 0.0 0.0 0.00 0.00 0.00 47 1015.2
20260505013803 23 0 0.0 0.0 0.00 0.00 0.00 47 1015.1
20260505013703 23 0 0.0 0.0 0.00 0.00 0.00 47 1015.1
20260505013602 23 0 0.0 0.0 0.00 0.00 0.00 46 1015.1
20260505013503 23 0 0.0 0.0 0.00 0.00 0.00 46 1015.2
20260505013403 23 0 0.0 0.0 0.00 0.00 0.00 46 1015.1
20260505013303 23 0 0.0 0.0 0.00 0.00 0.00 46 1015.2
20260505013203 23 0 0.0 0.0 0.00 0.00 0.00 46 1015.0
20260505013103 23 0 0.0 0.0 0.00 0.00 0.00 46 1015.0
20260505013003 23 0 0.0 0.0 0.00 0.00 0.00 46 1015.1
20260505012902 23 0 0.0 0.0 0.00 0.00 0.00 46 1015.1
20260505012802 23 0 0.0 0.0 0.00 0.00 0.00 46 1015.0
20260505012703 23 0 0.0 0.0 0.00 0.00 0.00 46 1015.0
20260505012603 23 0 0.0 0.0 0.00 0.00 0.00 46 1015.0
20260505012503 23 0 0.0 0.0 0.00 0.00 0.00 45 1015.0
20260505012405 23 0 0.0 0.0 0.00 0.00 0.00 46 1015.0
20260505012304 23 0 0.0 0.0 0.00 0.00 0.00 46 1015.0
20260505012203 23 0 0.0 0.0 0.00 0.00 0.00 46 1015.0
20260505012104 23 0 0.0 0.0 0.00 0.00 0.00 45 1015.1
20260505011903 23 0 0.0 0.0 0.00 0.00 0.00 45 1015.1
20260505011803 23 0 0.0 0.0 0.00 0.00 0.00 45 1014.9
20260505011703 23 0 0.0 0.0 0.00 0.00 0.00 45 1014.9
20260505011602 23 0 0.0 0.0 0.00 0.00 0.00 45 1014.8
20260505011403 23 90 0.0 1.6 0.00 0.00 0.00 44 1014.9
20260505011303 24 90 0.0 1.6 0.00 0.00 0.00 44 1014.9
20260505011203 24 90 0.0 1.6 0.00 0.00 0.00 44 1014.9
20260505010906 24 90 0.0 1.6 0.00 0.00 0.00 43 1014.7
20260505010803 24 90 0.0 1.6 0.00 0.00 0.00 43 1014.7
20260505010702 24 90 0.0 1.6 0.00 0.00 0.00 43 1014.9
20260505010602 24 90 0.0 1.6 0.00 0.00 0.00 43 1014.7
20260505010503 24 90 0.0 1.6 0.00 0.00 0.00 43 1014.7
20260505010403 24 90 0.0 1.6 0.00 0.00 0.00 43 1014.6
20260505010303 24 90 0.0 1.6 0.00 0.00 0.00 43 1014.7
20260505010203 24 0 0.0 0.0 0.00 0.00 0.00 43 1014.6
20260505010002 24 90 0.0 1.6 0.00 0.00 0.00 43 1014.6
20260505005903 24 90 0.0 1.6 0.00 0.00 0.00 43 1014.6
20260505005803 24 90 0.0 1.6 0.00 0.00 0.00 43 1014.6
20260505005703 25 90 0.0 1.6 0.00 0.00 0.00 43 1014.6
20260505005603 25 90 0.0 3.2 0.00 0.00 0.00 43 1014.7
20260505005503 25 90 0.0 3.2 0.00 0.00 0.00 43 1014.7
20260505005402 25 90 0.0 3.2 0.00 0.00 0.00 42 1014.7
20260505005203 25 90 0.0 3.2 0.00 0.00 0.00 42 1014.6
20260505005003 25 86 0.0 3.2 0.00 0.00 0.00 42 1014.6
20260505004803 25 76 1.6 3.2 0.00 0.00 0.00 42 1014.5
20260505004702 25 71 0.0 3.2 0.00 0.00 0.00 42 1014.5
20260505004602 25 67 0.0 3.2 0.00 0.00 0.00 42 1014.4
20260505004503 25 64 1.6 3.2 0.00 0.00 0.00 42 1014.5
20260505004403 25 60 1.6 3.2 0.00 0.00 0.00 42 1014.4
20260505004203 25 52 0.0 3.2 0.00 0.00 0.00 42 1014.5
20260505004102 25 50 3.2 3.2 0.00 0.00 0.00 42 1014.4
20260505003806 25 45 1.6 3.2 0.00 0.00 0.00 42 1014.5
20260505003703 25 45 3.2 3.2 0.00 0.00 0.00 42 1014.5
20260505003603 25 45 1.6 3.2 0.00 0.00 0.00 42 1014.4
20260505003503 25 46 1.6 3.2 0.00 0.00 0.00 42 1014.4
20260505003403 25 51 1.6 3.2 0.00 0.00 0.00 42 1014.4
20260505003203 25 62 3.2 3.2 0.00 0.00 0.00 42 1014.4
20260505003103 25 68 1.6 4.8 0.00 0.00 0.00 42 1014.4
20260505003002 25 79 1.6 4.8 0.00 0.00 0.00 42 1014.4
20260505002902 25 89 1.6 4.8 0.00 0.00 0.00 42 1014.3
20260505002803 25 97 1.6 4.8 0.00 0.00 0.00 42 1014.4
20260505002703 25 107 1.6 4.8 0.00 0.00 0.00 42 1014.3
20260505002503 26 132 3.2 4.8 0.00 0.00 0.00 42 1014.2
20260505002403 26 141 1.6 4.8 0.00 0.00 0.00 42 1014.2
20260505002203 26 162 3.2 4.8 0.00 0.00 0.00 42 1014.3
20260505002103 26 171 3.2 4.8 0.00 0.00 0.00 42 1014.4
20260505002003 26 177 3.2 3.2 0.00 0.00 0.00 42 1014.2
20260505001903 26 188 3.2 3.2 0.00 0.00 0.00 42 1014.2
20260505001703 26 185 3.2 3.2 0.00 0.00 0.00 42 1014.3
20260505001603 26 177 3.2 4.8 0.00 0.00 0.00 42 1014.4
20260505001403 26 190 1.6 4.8 0.00 0.00 0.00 41 1014.3
20260505001203 26 179 3.2 4.8 0.00 0.00 0.00 41 1014.4
20260505001103 26 174 1.6 4.8 0.00 0.00 0.00 41 1014.3
20260505001002 26 172 3.2 4.8 0.00 0.00 0.00 41 1014.5
20260505000903 26 164 1.6 4.8 0.00 0.00 0.00 41 1014.3
20260505000805 26 165 3.2 4.8 0.00 0.00 0.00 41 1014.3
20260505000702 26 169 3.2 4.8 0.00 0.00 0.00 41 1014.3
20260505000602 26 179 3.2 6.4 0.00 0.00 0.00 41 1014.3
20260505000503 26 179 3.2 6.4 0.00 0.00 0.00 41 1014.2
20260505000405 26 176 3.2 6.4 0.00 0.00 0.00 41 1014.3
20260505000303 26 176 3.2 6.4 0.00 0.00 0.00 41 1014.4
20260505000204 26 182 3.2 6.4 0.00 0.00 0.00 41 1014.4
20260505000002 26 194 3.2 6.4 0.00 0.00 0.00 41 1014.3
20260504235903 26 200 3.2 6.4 0.00 0.00 0.00 41 1014.3
20260504235803 26 197 1.6 6.4 0.00 0.00 0.00 41 1014.3
20260504235703 26 191 3.2 6.4 0.00 0.00 0.00 41 1014.4
20260504235603 26 178 3.2 6.4 0.00 0.00 0.00 41 1014.4
20260504235503 26 172 1.6 6.4 0.00 0.00 0.00 41 1014.4
20260504235403 26 173 1.6 6.4 0.00 0.00 0.00 41 1014.4
20260504235306 26 171 3.2 6.4 0.00 0.00 0.00 41 1014.4
20260504235203 26 175 3.2 6.4 0.00 0.00 0.00 41 1014.4
20260504235103 26 187 0.0 8.0 0.00 0.00 0.00 41 1014.4
20260504235003 26 193 3.2 8.0 0.00 0.00 0.00 41 1014.4
20260504234802 26 192 3.2 8.0 0.00 0.00 0.00 41 1014.4
20260504234703 26 201 3.2 8.0 0.00 0.00 0.00 41 1014.3
20260504234603 26 208 4.8 8.0 0.00 0.00 0.00 41 1014.3
20260504234503 26 210 3.2 8.0 0.00 0.00 0.00 41 1014.4
20260504234303 26 207 3.2 8.0 0.00 0.00 0.00 40 1014.5
20260504234203 26 198 4.8 8.0 0.00 0.00 0.00 41 1014.2
20260504234103 26 179 4.8 8.0 0.00 0.00 0.00 41 1014.3
20260504234003 26 178 3.2 6.4 0.00 0.00 0.00 41 1014.3
20260504233903 26 185 1.6 6.4 0.00 0.00 0.00 41 1014.4
20260504233803 26 189 3.2 6.4 0.00 0.00 0.00 41 1014.5
20260504233603 26 186 3.2 6.4 0.00 0.00 0.00 41 1014.4
20260504233503 26 185 3.2 6.4 0.00 0.00 0.00 40 1014.4
20260504233403 26 190 1.6 6.4 0.00 0.00 0.00 40 1014.4
20260504233302 26 194 3.2 6.4 0.00 0.00 0.00 40 1014.3
20260504233202 26 202 3.2 6.4 0.00 0.00 0.00 40 1014.4
20260504233103 26 208 3.2 8.0 0.00 0.00 0.00 40 1014.4
20260504233003 26 204 4.8 8.0 0.00 0.00 0.00 40 1014.3
20260504232903 26 209 3.2 8.0 0.00 0.00 0.00 40 1014.3
20260504232703 26 209 3.2 8.0 0.00 0.00 0.00 40 1014.3
20260504232503 26 215 4.8 8.0 0.00 0.00 0.00 40 1014.3
20260504232402 26 215 4.8 8.0 0.00 0.00 0.00 40 1014.5
20260504232205 26 203 3.2 8.0 0.00 0.00 0.00 40 1014.4
20260504232102 26 203 4.8 8.0 0.00 0.00 0.00 40 1014.4
20260504232003 26 206 4.8 8.0 0.00 0.00 0.00 40 1014.4
20260504231903 26 199 4.8 8.0 0.00 0.00 0.00 40 1014.5
20260504231803 26 204 3.2 8.0 0.00 0.00 0.00 40 1014.5
20260504231703 26 216 3.2 8.0 0.00 0.00 0.00 40 1014.3
20260504231602 26 229 3.2 8.0 0.00 0.00 0.00 40 1014.4
20260504231503 26 237 3.2 8.0 0.00 0.00 0.00 40 1014.4
20260504231303 26 233 4.8 8.0 0.00 0.00 0.00 40 1014.4
20260504231203 26 228 3.2 8.0 0.00 0.00 0.00 40 1014.4
20260504231103 26 220 3.2 8.0 0.00 0.00 0.00 40 1014.4
20260504230902 27 203 6.4 8.0 0.00 0.00 0.00 40 1014.3
20260504230803 27 198 3.2 8.0 0.00 0.00 0.00 40 1014.4
20260504230705 27 189 4.8 8.0 0.00 0.00 0.00 40 1014.4
20260504230602 27 185 4.8 8.0 0.00 0.00 0.00 40 1014.4
20260504230503 27 185 4.8 8.0 0.00 0.00 0.00 40 1014.5
20260504230403 27 187 6.4 8.0 0.00 0.00 0.00 40 1014.4
20260504230303 27 188 6.4 8.0 0.00 0.00 0.00 40 1014.4
20260504230203 27 191 6.4 8.0 0.00 0.00 0.00 40 1014.3
20260504230003 27 197 6.4 8.0 0.00 0.00 0.00 40 1014.5
20260504225903 27 202 6.4 8.0 0.00 0.00 0.00 40 1014.5
20260504225803 27 207 4.8 8.0 0.00 0.00 0.00 40 1014.4
20260504225703 27 208 4.8 8.0 0.00 0.00 0.00 40 1014.4
20260504225603 27 209 4.8 8.0 0.00 0.00 0.00 40 1014.4
20260504225502 27 212 3.2 8.0 0.00 0.00 0.00 40 1014.5
20260504225402 27 212 3.2 8.0 0.00 0.00 0.00 40 1014.4
20260504225304 27 211 6.4 8.0 0.00 0.00 0.00 39 1014.4
20260504225003 27 216 3.2 6.4 0.00 0.00 0.00 40 1014.4
20260504224903 27 209 4.8 6.4 0.00 0.00 0.00 40 1014.4
20260504224803 27 203 4.8 6.4 0.00 0.00 0.00 40 1014.4
20260504224603 27 190 3.2 6.4 0.00 0.00 0.00 40 1014.5
20260504224502 27 184 3.2 6.4 0.00 0.00 0.00 40 1014.5
20260504224203 26 189 1.6 6.4 0.00 0.00 0.00 40 1014.3
20260504224103 26 194 1.6 6.4 0.00 0.00 0.00 40 1014.4
20260504224003 26 203 3.2 8.0 0.00 0.00 0.00 41 1014.4
20260504223902 26 202 3.2 8.0 0.00 0.00 0.00 40 1014.3
20260504223802 26 209 1.6 8.0 0.00 0.00 0.00 40 1014.2
20260504223705 26 214 3.2 8.0 0.00 0.00 0.00 40 1014.3
20260504223602 26 221 3.2 8.0 0.00 0.00 0.00 40 1014.3
20260504223403 26 230 4.8 8.0 0.00 0.00 0.00 40 1014.3
20260504223303 26 240 3.2 8.0 0.00 0.00 0.00 40 1014.3
20260504223203 26 242 3.2 8.0 0.00 0.00 0.00 40 1014.3
20260504223102 26 234 1.6 8.0 0.00 0.00 0.00 39 1014.4
20260504223003 26 226 3.2 6.4 0.00 0.00 0.00 39 1014.3
20260504222803 26 220 3.2 6.4 0.00 0.00 0.00 39 1014.4
20260504222603 26 201 1.6 6.4 0.00 0.00 0.00 40 1014.5
20260504222502 26 195 1.6 6.4 0.00 0.00 0.00 40 1014.5
20260504222402 26 178 4.8 6.4 0.00 0.00 0.00 39 1014.5
20260504222205 26 169 4.8 6.4 0.00 0.00 0.00 39 1014.5
20260504222103 26 168 4.8 6.4 0.00 0.00 0.00 39 1014.5
20260504222003 26 162 4.8 6.4 0.00 0.00 0.00 39 1014.5
20260504221903 26 161 4.8 6.4 0.00 0.00 0.00 39 1014.5
20260504221803 26 155 4.8 6.4 0.00 0.00 0.00 39 1014.5
20260504221702 26 161 3.2 6.4 0.00 0.00 0.00 40 1014.6
20260504221502 26 182 1.6 6.4 0.00 0.00 0.00 40 1014.5
20260504221403 26 190 3.2 6.4 0.00 0.00 0.00 40 1014.4
20260504221203 26 179 3.2 8.0 0.00 0.00 0.00 39 1014.4
20260504221103 26 177 3.2 8.0 0.00 0.00 0.00 38 1014.6
20260504221003 26 178 3.2 8.0 0.00 0.00 0.00 38 1014.5
20260504220903 26 182 4.8 8.0 0.00 0.00 0.00 37 1014.5
20260504220804 26 190 4.8 8.0 0.00 0.00 0.00 37 1014.5
20260504220703 26 191 4.8 8.0 0.00 0.00 0.00 37 1014.5
20260504220603 26 191 6.4 8.0 0.00 0.00 0.00 37 1014.4
20260504220403 26 191 3.2 8.0 0.00 0.00 0.00 36 1014.5
20260504220303 26 210 6.4 8.0 0.00 0.00 0.00 36 1014.5
20260504220202 26 223 6.4 8.0 0.00 0.00 0.00 36 1014.5
20260504220003 26 218 3.2 6.4 0.00 0.00 0.00 36 1014.6
20260504215903 26 217 3.2 6.4 0.00 0.00 0.00 36 1014.6
20260504215803 26 199 4.8 6.4 0.00 0.00 0.00 36 1014.6
20260504215703 26 199 3.2 8.0 0.00 0.00 0.00 37 1014.6
20260504215402 26 215 4.8 11.3 0.00 0.00 0.00 36 1014.7
20260504215304 26 204 4.8 11.3 0.00 0.00 0.00 36 1014.4
20260504215203 26 184 4.8 11.3 0.00 0.00 0.00 36 1014.7
20260504215103 26 173 4.8 11.3 0.00 0.00 0.00 36 1014.6
20260504215003 26 183 6.4 11.3 0.00 0.00 0.00 36 1014.7
20260504214902 26 195 6.4 11.3 0.00 0.00 0.00 36 1014.7
20260504214802 26 209 6.4 11.3 0.00 0.00 0.00 36 1014.7
20260504214603 26 187 3.2 12.9 0.00 0.00 0.00 37 1014.8
20260504214503 26 187 4.8 12.9 0.00 0.00 0.00 37 1014.8
20260504214403 26 174 9.7 12.9 0.00 0.00 0.00 38 1014.8
20260504214303 26 174 6.4 12.9 0.00 0.00 0.00 39 1014.8
20260504214203 26 174 3.2 12.9 0.00 0.00 0.00 39 1014.7
20260504214103 26 173 3.2 12.9 0.00 0.00 0.00 38 1014.9
20260504214003 26 172 3.2 12.9 0.00 0.00 0.00 38 1014.8
20260504213903 26 170 4.8 12.9 0.00 0.00 0.00 38 1014.7
20260504213803 26 167 8.0 12.9 0.00 0.00 0.00 39 1014.8
20260504213603 26 177 4.8 8.0 0.00 0.00 0.00 40 1014.8
20260504213503 26 177 3.2 8.0 0.00 0.00 0.00 40 1014.8
20260504213403 26 186 6.4 8.0 0.00 0.00 0.00 40 1014.8
20260504213303 26 193 3.2 8.0 0.00 0.00 0.00 40 1014.9
20260504213203 26 196 3.2 8.0 0.00 0.00 0.00 40 1014.9
20260504213103 26 205 4.8 8.0 0.00 0.00 0.00 40 1014.8
20260504212803 26 216 4.8 8.0 0.00 0.00 0.00 39 1014.7
20260504212703 26 209 4.8 11.3 0.00 0.00 0.00 39 1014.9
20260504212503 26 207 3.2 11.3 0.00 0.00 0.00 38 1014.7
20260504212403 26 197 3.2 11.3 0.00 0.00 0.00 38 1014.9
20260504212304 26 190 6.4 11.3 0.00 0.00 0.00 38 1014.9
20260504212205 26 197 3.2 12.9 0.00 0.00 0.00 38 1014.8
20260504212002 26 196 3.2 12.9 0.00 0.00 0.00 38 1014.8
20260504211903 26 191 3.2 12.9 0.00 0.00 0.00 38 1015.0
20260504211803 26 182 8.0 12.9 0.00 0.00 0.00 37 1014.9
20260504211703 26 184 4.8 12.9 0.00 0.00 0.00 37 1014.9
20260504211603 26 181 3.2 17.7 0.00 0.00 0.00 37 1014.8
20260504211503 26 177 4.8 17.7 0.00 0.00 0.00 37 1014.8
20260504211403 26 176 4.8 17.7 0.00 0.00 0.00 37 1014.8
20260504211303 26 179 6.4 17.7 0.00 0.00 0.00 36 1014.7
20260504211203 26 182 8.0 17.7 0.00 0.00 0.00 36 1014.8
20260504211103 26 187 8.0 17.7 0.00 0.00 0.00 37 1014.9
20260504211003 27 190 6.4 17.7 0.00 0.00 0.00 37 1014.9
20260504210802 27 207 6.4 17.7 0.00 0.00 0.00 37 1014.8
20260504210606 27 205 11.3 17.7 0.00 0.00 0.00 38 1014.9
20260504210503 27 221 4.8 12.9 0.00 0.00 0.00 38 1014.8
20260504210403 27 228 11.3 12.9 0.00 0.00 0.00 37 1014.9
20260504210303 27 226 11.3 12.9 0.00 0.00 0.00 37 1014.9
20260504210004 27 179 4.8 12.9 0.00 0.00 0.00 33 1014.8
20260504205903 27 159 4.8 12.9 0.00 0.00 0.00 33 1014.8
20260504205803 27 151 4.8 12.9 0.00 0.00 0.00 33 1015.0
20260504205703 28 164 4.8 12.9 0.00 0.00 0.00 33 1015.0
20260504205603 28 166 8.0 12.9 0.00 0.00 0.00 33 1014.9
20260504205503 28 168 3.2 11.3 0.00 0.00 0.00 34 1015.0
20260504205304 28 155 6.4 11.3 0.00 0.00 0.00 34 1014.9
20260504205203 28 158 6.4 11.3 0.00 0.00 0.00 34 1015.0
20260504205105 27 176 6.4 11.3 0.00 0.00 0.00 35 1014.9
20260504205002 27 195 3.2 16.1 0.00 0.00 0.00 34 1015.0
20260504204903 27 205 1.6 16.1 0.00 0.00 0.00 34 1015.0
20260504204803 27 210 3.2 16.1 0.00 0.00 0.00 34 1014.9
20260504204703 27 216 3.2 16.1 0.00 0.00 0.00 34 1015.0
20260504204603 27 218 6.4 16.1 0.00 0.00 0.00 33 1015.1
20260504204402 27 188 6.4 16.1 0.00 0.00 0.00 33 1015.1
20260504204303 27 174 6.4 16.1 0.00 0.00 0.00 33 1015.1
20260504204203 27 160 4.8 16.1 0.00 0.00 0.00 33 1015.2
20260504204003 28 145 9.7 16.1 0.00 0.00 0.00 33 1015.1
20260504203903 28 138 4.8 14.5 0.00 0.00 0.00 33 1015.1
20260504203802 28 146 4.8 14.5 0.00 0.00 0.00 33 1015.1
20260504203703 28 144 4.8 14.5 0.00 0.00 0.00 33 1014.9
20260504203402 28 160 6.4 14.5 0.00 0.00 0.00 32 1015.0
20260504203303 28 166 6.4 14.5 0.00 0.00 0.00 32 1015.1
20260504203203 28 174 6.4 14.5 0.00 0.00 0.00 32 1015.0
20260504203103 28 183 4.8 12.9 0.00 0.00 0.00 32 1015.0
20260504203003 28 193 6.4 12.9 0.00 0.00 0.00 31 1015.0
20260504202903 28 194 6.4 12.9 0.00 0.00 0.00 31 1015.0
20260504202803 28 192 6.4 12.9 0.00 0.00 0.00 31 1015.1
20260504202703 28 195 6.4 12.9 0.00 0.00 0.00 31 1015.0
20260504202603 28 192 8.0 12.9 0.00 0.00 0.00 32 1015.1
20260504202503 28 185 4.8 12.9 0.00 0.00 0.00 32 1015.1
20260504202403 28 186 4.8 12.9 0.00 0.00 0.00 32 1015.0
20260504202304 28 184 6.4 12.9 0.00 0.00 0.00 32 1015.0
20260504202202 28 191 6.4 11.3 0.00 0.00 0.00 32 1015.2
20260504202105 28 189 6.4 11.3 0.00 0.00 0.00 32 1015.1
20260504201902 28 183 6.4 9.7 0.00 0.00 0.00 32 1015.0
20260504201803 28 173 3.2 16.1 0.00 0.00 0.00 32 1015.2
20260504201703 28 167 6.4 16.1 0.00 0.00 0.00 32 1015.1
20260504201603 28 166 4.8 16.1 0.00 0.00 0.00 33 1015.1
20260504201503 28 178 3.2 16.1 0.00 0.00 0.00 33 1015.0
20260504201403 28 184 4.8 16.1 0.00 0.00 0.00 33 1015.0
20260504201302 28 192 6.4 16.1 0.00 0.00 0.00 33 1015.1
20260504201203 28 181 4.8 16.1 0.00 0.00 0.00 33 1015.0
20260504201103 28 173 4.8 16.1 0.00 0.00 0.00 33 1015.1
20260504201003 28 164 4.8 16.1 0.00 0.00 0.00 33 1015.0
20260504200903 28 157 6.4 16.1 0.00 0.00 0.00 33 1015.1
20260504200802 28 160 12.9 16.1 0.00 0.00 0.00 33 1015.1
20260504200703 28 167 8.0 16.1 0.00 0.00 0.00 33 1015.1
20260504200603 28 172 4.8 12.9 0.00 0.00 0.00 33 1015.2
20260504200403 28 171 8.0 12.9 0.00 0.00 0.00 33 1015.0
20260504200203 28 167 8.0 17.7 0.00 0.00 0.00 35 1015.2
20260504200003 28 196 8.0 17.7 0.00 0.00 0.00 35 1015.2
20260504195803 28 207 6.4 17.7 0.00 0.00 0.00 34 1015.3
20260504195703 28 198 6.4 17.7 0.00 0.00 0.00 34 1015.2
20260504195603 28 193 6.4 17.7 0.00 0.00 0.00 34 1015.1
20260504195502 28 184 6.4 17.7 0.00 0.00 0.00 34 1015.3
20260504195404 28 177 4.8 17.7 0.00 0.00 0.00 34 1015.2
20260504195304 28 184 12.9 17.7 0.00 0.00 0.00 34 1015.3
20260504195203 28 185 12.9 17.7 0.00 0.00 0.00 34 1015.4
20260504195103 28 181 6.4 19.3 0.00 0.00 0.00 34 1015.2
20260504195006 28 174 6.4 19.3 0.00 0.00 0.00 34 1015.1
20260504194903 28 160 6.4 19.3 0.00 0.00 0.00 34 1015.3
20260504194803 28 154 6.4 19.3 0.00 0.00 0.00 34 1015.3
20260504194702 28 161 4.8 19.3 0.00 0.00 0.00 34 1015.2
20260504194603 28 167 6.4 19.3 0.00 0.00 0.00 34 1015.1
20260504194503 28 177 8.0 19.3 0.00 0.00 0.00 34 1015.1
20260504194403 28 176 9.7 19.3 0.00 0.00 0.00 34 1015.3
20260504194303 28 175 6.4 19.3 0.00 0.00 0.00 34 1015.3
20260504194203 28 171 6.4 19.3 0.00 0.00 0.00 35 1015.3
20260504193902 28 205 12.9 19.3 0.00 0.00 0.00 34 1015.2
20260504193803 28 208 9.7 14.5 0.00 0.00 0.00 34 1015.3
20260504193703 28 186 8.0 14.5 0.00 0.00 0.00 34 1015.3
20260504193603 28 178 8.0 14.5 0.00 0.00 0.00 34 1015.2
20260504193506 28 167 8.0 14.5 0.00 0.00 0.00 34 1015.3
20260504193403 28 170 6.4 14.5 0.00 0.00 0.00 34 1015.2
20260504193203 28 176 4.8 14.5 0.00 0.00 0.00 33 1015.3
20260504193103 28 176 4.8 14.5 0.00 0.00 0.00 33 1015.3
20260504193003 28 173 6.4 14.5 0.00 0.00 0.00 34 1015.2
20260504192905 28 173 9.7 14.5 0.00 0.00 0.00 34 1015.1
20260504192803 28 183 8.0 14.5 0.00 0.00 0.00 33 1015.3
20260504192703 28 185 6.4 14.5 0.00 0.00 0.00 33 1015.3
20260504192603 28 179 8.0 14.5 0.00 0.00 0.00 32 1015.2
20260504192503 28 178 8.0 14.5 0.00 0.00 0.00 32 1015.2
20260504192403 28 176 3.2 14.5 0.00 0.00 0.00 32 1015.2
20260504192304 28 174 6.4 14.5 0.00 0.00 0.00 32 1015.2
20260504192203 28 178 8.0 14.5 0.00 0.00 0.00 32 1015.3
20260504192103 28 181 12.9 14.5 0.00 0.00 0.00 32 1015.3
20260504192003 28 174 8.0 12.9 0.00 0.00 0.00 32 1015.2
20260504191903 28 173 8.0 14.5 0.00 0.00 0.00 32 1015.3
20260504191803 27 171 3.2 14.5 0.00 0.00 0.00 33 1015.4
20260504191704 27 182 6.4 17.7 0.00 0.00 0.00 33 1015.3
20260504191603 27 192 6.4 17.7 0.00 0.00 0.00 33 1015.4
20260504191503 27 193 4.8 17.7 0.00 0.00 0.00 32 1015.4
20260504191303 27 187 6.4 17.7 0.00 0.00 0.00 32 1015.4
20260504191203 27 179 8.0 17.7 0.00 0.00 0.00 32 1015.3
20260504191102 27 169 4.8 17.7 0.00 0.00 0.00 32 1015.3
20260504191002 27 168 9.7 17.7 0.00 0.00 0.00 36 1015.3
20260504190903 27 164 6.4 17.7 0.00 0.00 0.00 36 1015.3
20260504190803 27 163 6.4 17.7 0.00 0.00 0.00 35 1015.4
20260504190703 27 154 8.0 17.7 0.00 0.00 0.00 35 1015.4
20260504190502 27 163 6.4 8.0 0.00 0.00 0.00 33 1015.5
20260504190403 27 169 6.4 8.0 0.00 0.00 0.00 33 1015.5
20260504190303 27 184 6.4 16.1 0.00 0.00 0.00 33 1015.5
20260504190203 27 178 6.4 16.1 0.00 0.00 0.00 33 1015.5
20260504185803 27 201 4.8 16.1 0.00 0.00 0.00 33 1015.5
20260504185602 27 146 4.8 16.1 0.00 0.00 0.00 32 1015.6
20260504185403 27 168 4.8 16.1 0.00 0.00 0.00 33 1015.5
20260504185203 27 171 4.8 12.9 0.00 0.00 0.00 34 1015.5
20260504185103 27 198 3.2 17.7 0.00 0.00 0.00 34 1015.5
20260504185003 27 208 6.4 17.7 0.00 0.00 0.00 33 1015.5
20260504184903 27 215 6.4 17.7 0.00 0.00 0.00 33 1015.5
20260504184803 27 216 11.3 17.7 0.00 0.00 0.00 32 1015.5
20260504184703 27 217 6.4 17.7 0.00 0.00 0.00 33 1015.5
20260504184603 27 215 6.4 17.7 0.00 0.00 0.00 33 1015.5
20260504184502 27 209 4.8 17.7 0.00 0.00 0.00 33 1015.5
20260504184403 27 212 6.4 17.7 0.00 0.00 0.00 33 1015.7
20260504184306 27 209 8.0 17.7 0.00 0.00 0.00 33 1015.5
20260504184203 27 212 12.9 17.7 0.00 0.00 0.00 33 1015.5
20260504184103 28 188 9.7 17.7 0.00 0.00 0.00 34 1015.5
20260504184003 28 169 6.4 9.7 0.00 0.00 0.00 33 1015.4
20260504183902 28 168 4.8 9.7 0.00 0.00 0.00 33 1015.4
20260504183802 27 171 6.4 9.7 0.00 0.00 0.00 34 1015.5
20260504183703 27 173 4.8 9.7 0.00 0.00 0.00 34 1015.5
20260504183603 27 176 1.6 9.7 0.00 0.00 0.00 34 1015.5
20260504183503 27 184 3.2 9.7 0.00 0.00 0.00 33 1015.5
20260504183403 27 179 3.2 9.7 0.00 0.00 0.00 33 1015.7
20260504183303 27 178 3.2 9.7 0.00 0.00 0.00 36 1015.6
20260504183203 27 183 6.4 9.7 0.00 0.00 0.00 36 1015.7
20260504183103 27 193 6.4 9.7 0.00 0.00 0.00 32 1015.7
20260504183003 27 206 6.4 9.7 0.00 0.00 0.00 32 1015.5
20260504182903 27 209 4.8 6.4 0.00 0.00 0.00 32 1015.6
20260504182806 27 220 4.8 9.7 0.00 0.00 0.00 32 1015.7
20260504182703 27 221 4.8 9.7 0.00 0.00 0.00 35 1015.7
20260504182503 27 206 4.8 9.7 0.00 0.00 0.00 35 1015.6
20260504182403 27 212 3.2 9.7 0.00 0.00 0.00 35 1015.6
20260504182304 27 208 4.8 12.9 0.00 0.00 0.00 36 1015.7
20260504182203 27 207 3.2 12.9 0.00 0.00 0.00 36 1015.6
20260504182103 27 203 3.2 12.9 0.00 0.00 0.00 37 1015.8
20260504182003 27 204 3.2 12.9 0.00 0.00 0.00 37 1015.7
20260504181903 27 211 3.2 12.9 0.00 0.00 0.00 37 1015.7
20260504181803 27 199 6.4 12.9 0.00 0.00 0.00 36 1015.7
20260504181703 27 192 6.4 12.9 0.00 0.00 0.00 37 1015.6
20260504181603 27 191 6.4 12.9 0.00 0.00 0.00 37 1015.7
20260504181503 27 183 6.4 12.9 0.00 0.00 0.00 37 1015.7
20260504181306 27 186 6.4 11.3 0.00 0.00 0.00 38 1015.7
20260504181203 27 189 1.6 11.3 0.00 0.00 0.00 38 1015.6
20260504181103 27 200 3.2 11.3 0.00 0.00 0.00 38 1015.7
20260504181003 26 209 6.4 11.3 0.00 0.00 0.00 38 1015.7
20260504180902 26 200 6.4 11.3 0.00 0.00 0.00 37 1015.7
20260504180703 26 259 6.4 11.3 0.00 0.00 0.00 38 1015.7
20260504180603 26 278 6.4 11.3 0.00 0.00 0.00 37 1015.8
20260504180503 26 277 8.0 11.3 0.00 0.00 0.00 37 1015.8
20260504180403 26 284 9.7 11.3 0.00 0.00 0.00 38 1015.8
20260504180303 26 277 4.8 9.7 0.00 0.00 0.00 37 1015.9
20260504180203 26 256 6.4 8.0 0.00 0.00 0.00 36 1015.8
20260504180103 26 238 6.4 8.0 0.00 0.00 0.00 36 1015.9
20260504180003 26 214 6.4 14.5 0.00 0.00 0.00 36 1016.0
20260504175806 26 207 3.2 14.5 0.00 0.00 0.00 36 1016.0
20260504175703 26 195 4.8 14.5 0.00 0.00 0.00 36 1015.9
20260504175603 26 190 3.2 14.5 0.00 0.00 0.00 36 1016.0
20260504175503 26 190 4.8 14.5 0.00 0.00 0.00 36 1015.9
20260504175402 26 187 6.4 14.5 0.00 0.00 0.00 36 1015.9
20260504175304 26 192 6.4 14.5 0.00 0.00 0.00 36 1015.9
20260504175204 26 193 6.4 14.5 0.00 0.00 0.00 35 1015.9
20260504175103 26 188 6.4 14.5 0.00 0.00 0.00 35 1015.9
20260504175003 26 199 6.4 12.9 0.00 0.00 0.00 38 1016.0
20260504174902 26 213 3.2 12.9 0.00 0.00 0.00 38 1016.0
20260504174803 26 229 6.4 12.9 0.00 0.00 0.00 39 1015.9
20260504174703 26 233 4.8 12.9 0.00 0.00 0.00 38 1016.0
20260504174603 26 238 3.2 9.7 0.00 0.00 0.00 38 1015.9
20260504174503 26 236 1.6 9.7 0.00 0.00 0.00 38 1016.0
20260504174403 26 235 4.8 9.7 0.00 0.00 0.00 38 1016.0
20260504174305 26 215 6.4 12.9 0.00 0.00 0.00 37 1016.0
20260504174202 26 196 1.6 12.9 0.00 0.00 0.00 36 1015.9
20260504174003 26 168 4.8 12.9 0.00 0.00 0.00 36 1015.9
20260504173803 26 160 6.4 12.9 0.00 0.00 0.00 36 1016.0
20260504173603 26 166 6.4 14.5 0.00 0.00 0.00 37 1016.1
20260504173503 26 170 3.2 14.5 0.00 0.00 0.00 37 1016.0
20260504173402 26 170 8.0 14.5 0.00 0.00 0.00 37 1016.0
20260504173303 26 172 6.4 14.5 0.00 0.00 0.00 37 1016.0
20260504173203 26 176 6.4 14.5 0.00 0.00 0.00 37 1016.0
20260504173103 26 179 6.4 14.5 0.00 0.00 0.00 38 1016.0
20260504173003 25 184 6.4 14.5 0.00 0.00 0.00 37 1016.0
20260504172903 25 187 6.4 14.5 0.00 0.00 0.00 37 1016.1
20260504172806 25 192 3.2 14.5 0.00 0.00 0.00 36 1016.1
20260504172703 25 192 6.4 14.5 0.00 0.00 0.00 36 1016.2
20260504172603 26 195 9.7 14.5 0.00 0.00 0.00 37 1016.2
20260504172503 26 192 8.0 12.9 0.00 0.00 0.00 38 1016.1
20260504172403 26 177 8.0 12.9 0.00 0.00 0.00 37 1016.2
20260504172203 26 189 6.4 11.3 0.00 0.00 0.00 37 1016.1
20260504172103 26 187 6.4 11.3 0.00 0.00 0.00 37 1016.1
20260504171903 26 226 3.2 11.3 0.00 0.00 0.00 38 1016.2
20260504171803 26 200 1.6 11.3 0.00 0.00 0.00 39 1016.1
20260504171703 25 220 3.2 11.3 0.00 0.00 0.00 38 1016.1
20260504171603 25 224 6.4 11.3 0.00 0.00 0.00 37 1016.2
20260504171503 25 233 6.4 11.3 0.00 0.00 0.00 37 1016.2
20260504171305 25 232 3.2 11.3 0.00 0.00 0.00 37 1016.3
20260504171202 25 237 3.2 11.3 0.00 0.00 0.00 37 1016.1
20260504171003 25 239 6.4 11.3 0.00 0.00 0.00 36 1016.2
20260504170903 25 231 6.4 11.3 0.00 0.00 0.00 37 1016.2
20260504170803 25 244 3.2 11.3 0.00 0.00 0.00 37 1016.2
20260504170703 25 237 6.4 11.3 0.00 0.00 0.00 38 1016.2
20260504170603 25 243 4.8 11.3 0.00 0.00 0.00 38 1016.2
20260504170403 25 231 4.8 12.9 0.00 0.00 0.00 39 1016.2
20260504170303 25 230 6.4 12.9 0.00 0.00 0.00 39 1016.1
20260504170203 25 231 6.4 12.9 0.00 0.00 0.00 39 1016.1
20260504160403 23 190 3.2 16.1 0.00 0.00 0.00 40 1016.2
20260504160302 23 192 4.8 16.1 0.00 0.00 0.00 40 1016.2
20260504160203 23 197 4.8 12.9 0.00 0.00 0.00 40 1016.2
20260504151103 22 181 4.8 12.9 0.00 0.00 0.00 46 1016.5
20260504150903 21 159 6.4 12.9 0.00 0.00 0.00 47 1016.5
20260504150802 21 167 6.4 12.9 0.00 0.00 0.00 47 1016.4
20260504150702 21 155 6.4 12.9 0.00 0.00 0.00 47 1016.4
20260504150603 21 155 4.8 12.9 0.00 0.00 0.00 48 1016.5
20260504150503 21 158 6.4 12.9 0.00 0.00 0.00 47 1016.5
20260504150403 21 161 4.8 12.9 0.00 0.00 0.00 47 1016.4
20260504150303 21 150 6.4 12.9 0.00 0.00 0.00 47 1016.4
20260504150203 21 179 11.3 12.9 0.00 0.00 0.00 47 1016.5
20260504141303 19 220 9.7 20.9 0.00 0.00 0.00 50 1016.6
20260504141202 19 206 4.8 20.9 0.00 0.00 0.00 50 1016.7
20260504141102 19 198 4.8 20.9 0.00 0.00 0.00 50 1016.7
20260504141003 19 188 6.4 20.9 0.00 0.00 0.00 50 1016.6
20260504140803 19 168 12.9 20.9 0.00 0.00 0.00 50 1016.6
20260504140703 19 170 4.8 12.9 0.00 0.00 0.00 50 1016.6
20260504140603 19 171 4.8 12.9 0.00 0.00 0.00 50 1016.7
20260504140303 19 182 4.8 12.9 0.00 0.00 0.00 50 1016.8
20260504140203 19 187 6.4 11.3 0.00 0.00 0.00 50 1016.7
20260504130803 18 166 11.3 12.9 0.00 0.00 0.00 48 1016.4
20260504130703 18 169 6.4 12.9 0.00 0.00 0.00 48 1016.4
20260504130403 18 175 6.4 12.9 0.00 0.00 0.00 48 1016.4
20260504130303 18 175 4.8 12.9 0.00 0.00 0.00 48 1016.4
20260504130203 18 179 4.8 12.9 0.00 0.00 0.00 48 1016.4
20260504120203 17 190 3.2 12.9 0.00 0.00 0.00 50 1016.8
20260504110703 17 167 1.6 8.0 0.00 0.00 0.00 48 1016.7
20260504110403 17 160 3.2 8.0 0.00 0.00 0.00 48 1016.7
20260504110303 17 166 3.2 8.0 0.00 0.00 0.00 48 1016.6
20260504110203 17 168 6.4 8.0 0.00 0.00 0.00 48 1016.7
20260504110103 17 170 6.4 6.4 0.00 0.00 0.00 48 1016.8
20260504100602 18 130 3.2 12.9 0.00 0.00 0.00 44 1017.2
20260504100502 18 127 3.2 12.9 0.00 0.00 0.00 44 1017.1
20260504100403 18 134 3.2 12.9 0.00 0.00 0.00 44 1017.1
20260504100203 18 153 3.2 12.9 0.00 0.00 0.00 44 1017.1
20260504082003 18 197 11.3 14.5 0.00 0.00 0.00 44 1017.6
20260504081903 18 195 8.0 14.5 0.00 0.00 0.00 44 1017.7
20260504081802 18 184 8.0 14.5 0.00 0.00 0.00 44 1017.7
20260504081703 18 177 4.8 14.5 0.00 0.00 0.00 44 1017.8
20260504081603 18 177 4.8 14.5 0.00 0.00 0.00 44 1017.9
20260504081503 18 187 6.4 14.5 0.00 0.00 0.00 44 1017.8
20260504081303 18 199 6.4 14.5 0.00 0.00 0.00 45 1017.7
20260504081103 18 222 8.0 14.5 0.00 0.00 0.00 45 1017.7
20260504081003 18 235 4.8 8.0 0.00 0.00 0.00 45 1017.8
20260504080903 18 241 6.4 8.0 0.00 0.00 0.00 45 1017.9
20260504080803 18 241 6.4 8.0 0.00 0.00 0.00 45 1017.8
20260504080703 18 244 4.8 12.9 0.00 0.00 0.00 45 1017.9
20260504080602 18 244 4.8 12.9 0.00 0.00 0.00 45 1017.8
20260504080503 18 235 4.8 12.9 0.00 0.00 0.00 45 1018.0
20260504080403 18 224 4.8 12.9 0.00 0.00 0.00 45 1017.9
20260504080303 18 212 4.8 12.9 0.00 0.00 0.00 45 1017.9
20260504080203 18 201 4.8 12.9 0.00 0.00 0.00 45 1018.0